URO7428 LPPD-LPLA

Flight info

Callsign URO7428
Flight time 0h 20m
Altitude 13000
Route MIPRU H113 LM
Aircraft A346/H-SDE2E3FGHIJ3J4J5M1RWXY/LB1D1

Departure

Time 2026-05-06 19:22
Airport João Paulo II Airport (LPPD)

Arrival

Time 2026-05-06 19:42
Airport Lajes Airport (LPLA)
Time Latitude Longitude Altitude Speed Heading
2026-05-06 18:48 37.74772 -25.70785 280 ft 0 kts 21°
2026-05-06 19:09 37.74767 -25.70787 280 ft 2 kts 30°
2026-05-06 19:09 37.74762 -25.70794 282 ft 3 kts 59°
2026-05-06 19:09 37.74753 -25.70812 283 ft 2 kts 49°
2026-05-06 19:10 37.74745 -25.70822 288 ft 3 kts 40°
2026-05-06 19:10 37.74734 -25.70831 287 ft 3 kts 12°
2026-05-06 19:10 37.74727 -25.70832 286 ft 3 kts 336°
2026-05-06 19:10 37.74718 -25.70822 290 ft 3 kts 308°
2026-05-06 19:11 37.74707 -25.70802 285 ft 3 kts 298°
2026-05-06 19:11 37.74698 -25.70779 282 ft 3 kts 294°
2026-05-06 19:11 37.74692 -25.70763 289 ft 1 kts 292°
2026-05-06 19:11 37.74691 -25.70759 285 ft 0 kts 292°
2026-05-06 19:15 37.74692 -25.70762 289 ft 1 kts 292°
2026-05-06 19:15 37.74694 -25.70780 288 ft 3 kts 263°
2026-05-06 19:16 37.74681 -25.70804 282 ft 4 kts 218°
2026-05-06 19:16 37.74645 -25.70825 280 ft 7 kts 202°
2026-05-06 19:16 37.74585 -25.70850 280 ft 9 kts 180°
2026-05-06 19:16 37.74523 -25.70788 277 ft 14 kts 115°
2026-05-06 19:17 37.74479 -25.70649 271 ft 20 kts 112°
2026-05-06 19:17 37.74420 -25.70464 267 ft 25 kts 112°
2026-05-06 19:17 37.74348 -25.70238 255 ft 31 kts 112°
2026-05-06 19:17 37.74265 -25.69973 244 ft 29 kts 111°
2026-05-06 19:18 37.74186 -25.69724 239 ft 32 kts 112°
2026-05-06 19:18 37.74098 -25.69447 230 ft 34 kts 111°
2026-05-06 19:18 37.74017 -25.69191 219 ft 33 kts 112°
2026-05-06 19:18 37.73925 -25.68901 214 ft 38 kts 111°
2026-05-06 19:19 37.73861 -25.68696 192 ft 19 kts 112°
2026-05-06 19:19 37.73776 -25.68556 190 ft 22 kts 147°
2026-05-06 19:19 37.73757 -25.68503 201 ft 3 kts 41°
2026-05-06 19:19 37.73771 -25.68504 189 ft 4 kts 342°
2026-05-06 19:20 37.73799 -25.68529 195 ft 7 kts 311°
2026-05-06 19:20 37.73813 -25.68555 199 ft 1 kts 298°
2026-05-06 19:20 37.73820 -25.68573 198 ft 4 kts 295°
2026-05-06 19:20 37.73825 -25.68586 198 ft 0 kts 294°
2026-05-06 19:21 37.73833 -25.68608 191 ft 21 kts 294°
2026-05-06 19:21 37.74012 -25.69172 217 ft 113 kts 291°
2026-05-06 19:21 37.74391 -25.70351 393 ft 168 kts 289°
2026-05-06 19:22 37.74778 -25.71790 1337 ft 171 kts 281°
2026-05-06 19:22 37.74943 -25.73257 2566 ft 169 kts 273°
2026-05-06 19:22 37.75004 -25.74796 3444 ft 180 kts 274°
2026-05-06 19:22 37.75143 -25.76426 4030 ft 194 kts 276°
2026-05-06 19:23 37.75314 -25.78206 4606 ft 211 kts 277°
2026-05-06 19:23 37.75512 -25.80137 5170 ft 232 kts 278°
2026-05-06 19:23 37.75734 -25.82259 5836 ft 251 kts 278°
2026-05-06 19:23 37.75968 -25.84488 6763 ft 258 kts 278°
2026-05-06 19:24 37.76202 -25.86707 7795 ft 259 kts 277°
2026-05-06 19:24 37.76442 -25.88982 8858 ft 261 kts 277°
2026-05-06 19:24 37.76682 -25.91275 9911 ft 264 kts 277°
2026-05-06 19:24 37.76924 -25.93595 10778 ft 271 kts 277°
2026-05-06 19:25 37.77290 -25.96015 11334 ft 290 kts 288°
2026-05-06 19:25 37.78354 -25.98277 11792 ft 314 kts 309°
2026-05-06 19:25 37.80145 -26.00021 12413 ft 332 kts 324°
2026-05-06 19:25 37.82127 -26.01542 12963 ft 333 kts 324°
2026-05-06 19:26 37.84115 -26.03061 13189 ft 333 kts 324°
2026-05-06 19:26 37.86091 -26.04575 13181 ft 332 kts 324°
2026-05-06 19:26 37.88073 -26.06097 13183 ft 332 kts 324°
2026-05-06 19:26 37.90048 -26.07616 13185 ft 332 kts 324°
2026-05-06 19:27 37.92017 -26.09132 13186 ft 332 kts 324°
2026-05-06 19:27 37.94003 -26.10661 13185 ft 332 kts 324°
2026-05-06 19:27 37.95950 -26.12162 13184 ft 332 kts 324°
2026-05-06 19:27 37.97925 -26.13686 13185 ft 332 kts 324°
2026-05-06 19:28 37.99898 -26.15210 13186 ft 331 kts 324°
2026-05-06 19:28 38.01871 -26.16734 13184 ft 331 kts 324°
2026-05-06 19:28 38.03844 -26.18259 13180 ft 331 kts 324°
2026-05-06 19:28 38.05808 -26.19779 13176 ft 331 kts 324°
2026-05-06 19:29 38.07778 -26.21303 13179 ft 331 kts 324°
2026-05-06 19:29 38.09746 -26.22828 13175 ft 331 kts 324°
2026-05-06 19:29 38.11716 -26.24355 13175 ft 331 kts 324°
2026-05-06 19:29 38.13681 -26.25879 13179 ft 331 kts 324°
2026-05-06 19:30 38.15651 -26.27408 13179 ft 331 kts 324°
2026-05-06 19:30 38.17592 -26.28917 13178 ft 331 kts 324°
2026-05-06 19:30 38.19566 -26.30451 13180 ft 331 kts 324°
2026-05-06 19:30 38.21535 -26.31983 13182 ft 331 kts 324°
2026-05-06 19:31 38.23513 -26.33521 13177 ft 331 kts 324°
2026-05-06 19:31 38.25461 -26.35086 13182 ft 330 kts 321°
2026-05-06 19:31 38.28960 -26.38807 13163 ft 326 kts 311°
2026-05-06 19:32 38.30493 -26.40931 13181 ft 325 kts 309°
2026-05-06 19:32 38.31979 -26.43057 13184 ft 325 kts 309°
2026-05-06 19:32 38.33499 -26.45244 13170 ft 325 kts 309°
2026-05-06 19:32 38.34982 -26.47379 13168 ft 325 kts 309°
2026-05-06 19:33 38.36485 -26.49544 13117 ft 326 kts 309°
2026-05-06 19:33 38.37981 -26.51699 12845 ft 324 kts 309°
2026-05-06 19:33 38.39384 -26.53948 12574 ft 321 kts 301°
2026-05-06 19:33 38.40542 -26.56391 12321 ft 321 kts 298°
2026-05-06 19:34 38.41652 -26.58856 12068 ft 320 kts 298°
2026-05-06 19:34 38.42771 -26.61319 11811 ft 320 kts 298°
2026-05-06 19:34 38.43898 -26.63765 11549 ft 319 kts 298°
2026-05-06 19:34 38.45031 -26.66203 11302 ft 317 kts 298°
2026-05-06 19:35 38.46164 -26.68635 10595 ft 320 kts 298°
2026-05-06 19:35 38.47300 -26.71067 9644 ft 321 kts 298°
2026-05-06 19:35 38.48417 -26.73450 9050 ft 307 kts 298°
2026-05-06 19:35 38.49507 -26.75777 8340 ft 299 kts 298°
2026-05-06 19:36 38.50562 -26.78031 7686 ft 292 kts 299°
2026-05-06 19:36 38.51613 -26.80275 7063 ft 286 kts 299°
2026-05-06 19:36 38.52609 -26.82398 6484 ft 279 kts 300°
2026-05-06 19:36 38.53724 -26.84366 6174 ft 265 kts 309°
2026-05-06 19:37 38.54991 -26.86046 6169 ft 262 kts 314°
2026-05-06 19:37 38.56312 -26.87659 6164 ft 262 kts 314°
2026-05-06 19:37 38.57624 -26.89238 5968 ft 255 kts 314°
2026-05-06 19:37 38.58482 -26.90271 5506 ft 256 kts 314°
2026-05-06 19:38 38.60212 -26.92359 4831 ft 250 kts 315°
2026-05-06 19:38 38.61512 -26.93796 4421 ft 243 kts 319°
2026-05-06 19:38 38.62807 -26.95144 4042 ft 236 kts 319°
2026-05-06 19:38 38.64066 -26.96449 3626 ft 230 kts 319°
2026-05-06 19:39 38.65286 -26.97715 3329 ft 220 kts 319°
2026-05-06 19:39 38.66452 -26.98926 2927 ft 211 kts 319°
2026-05-06 19:39 38.67568 -27.00086 2395 ft 207 kts 319°
2026-05-06 19:39 38.68651 -27.01225 2035 ft 193 kts 318°
2026-05-06 19:40 38.69624 -27.02234 1969 ft 166 kts 318°
2026-05-06 19:40 38.70502 -27.03120 1765 ft 157 kts 319°
2026-05-06 19:40 38.71343 -27.03981 1409 ft 153 kts 316°
2026-05-06 19:40 38.72145 -27.04862 1104 ft 152 kts 319°
2026-05-06 19:41 38.72972 -27.05710 840 ft 152 kts 318°
2026-05-06 19:41 38.73782 -27.06571 665 ft 151 kts 320°
2026-05-06 19:41 38.74606 -27.07423 416 ft 152 kts 319°
2026-05-06 19:41 38.75418 -27.08275 214 ft 149 kts 319°
2026-05-06 19:42 38.76095 -27.08984 194 ft 89 kts 320°
2026-05-06 19:42 38.76385 -27.09285 182 ft 31 kts 321°
2026-05-06 19:42 38.76490 -27.09393 186 ft 17 kts 321°
2026-05-06 19:42 38.76565 -27.09419 192 ft 13 kts 21°
2026-05-06 19:43 38.76627 -27.09327 182 ft 12 kts 82°
2026-05-06 19:43 38.76603 -27.09275 184 ft 8 kts 134°
2026-05-06 19:43 38.76553 -27.09217 183 ft 11 kts 139°
2026-05-06 19:43 38.76485 -27.09146 188 ft 14 kts 141°
2026-05-06 19:44 38.76398 -27.09057 192 ft 18 kts 141°
2026-05-06 19:44 38.76299 -27.08952 195 ft 15 kts 140°
2026-05-06 19:44 38.76217 -27.08865 195 ft 17 kts 141°
2026-05-06 19:44 38.76116 -27.08761 192 ft 20 kts 141°
2026-05-06 19:45 38.76005 -27.08648 194 ft 18 kts 141°
2026-05-06 19:45 38.75936 -27.08576 192 ft 13 kts 141°
2026-05-06 19:45 38.75857 -27.08494 194 ft 16 kts 141°
2026-05-06 19:45 38.75759 -27.08392 198 ft 20 kts 141°
2026-05-06 19:46 38.75647 -27.08274 196 ft 22 kts 139°
2026-05-06 19:46 38.75545 -27.08164 196 ft 17 kts 141°
2026-05-06 19:46 38.75445 -27.08059 198 ft 20 kts 139°
2026-05-06 19:46 38.75377 -27.07971 194 ft 12 kts 136°
2026-05-06 19:47 38.75301 -27.07893 197 ft 16 kts 139°
2026-05-06 19:47 38.75213 -27.07795 199 ft 12 kts 139°
2026-05-06 19:47 38.75193 -27.07724 195 ft 8 kts 61°
2026-05-06 19:47 38.75227 -27.07682 202 ft 3 kts 24°
2026-05-06 19:48 38.75253 -27.07682 204 ft 5 kts 348°
2026-05-06 19:48 38.75286 -27.07701 196 ft 0 kts 329°
2026-05-06 19:48 38.75288 -27.07703 196 ft 0 kts 328°